Location: Canyam�s
(41.5996°N, 2.4450°E)
Time: 01:22:07
(UTC+00:00)

USA 186 - Pass Details

Date: 06 June 2020
Orbit: 265 x 438 km, 96.9° (Epoch: 12 July)

Event Time Altitude Azimuth Distance (km) Brightness Sun altitude
Rises 20:12:28 0° 204° (SSW) 2,086 5.1 -8.4°
Reaches altitude 10° 20:14:51 10° 230° (SW) 1,297 4.4 -8.8°
Maximum altitude 20:16:33 15° 268° (W) 1,083 4.5 -9.0°
Drops below altitude 10° 20:18:19 10° 306° (NW) 1,364 6.0 -9.3°
Sets 20:20:56 0° 331° (NNW) 2,266 7.1 -9.6°
